Regional Weather Roundup
Issued by NWS New Orleans/Baton Rouge, LA

Current Version | Previous Version | Text Only | Print | Product List | Glossary On
Versions: 1 2 3 4 5 6 7 8 9 10 11 12 13 14 15 16 17 18 19 20 21 22 23 24 25 26 27 28
000
ASUS44 KLIX 242113
RWRLIX
NEW ORLEANS REGIONAL WEATHER ROUNDUP
NATIONAL WEATHER SERVICE NEW ORLEANS LA
300 PM CST TUE JAN 24 2017

NOTE: "FAIR" INDICATES FEW OR NO CLOUDS BELOW 12,000 FEET WITH NO
      SIGNIFICANT WEATHER AND/OR OBSTRUCTIONS TO VISIBILITY.
      SKY/WX - SKY CONDITION AND SIGNIFICANT WEATHER.
      TMP - AIR TEMPERATURE.     DP    - DEWPOINT TEMPERATURE.
      RH  - RELATIVE HUMIDITY.   PRES  - PRESSURE.
      HI  - HEAT INDEX.          WCI   - WIND CHILL INDEX.

*  THESE STATIONS ARE NOT NWS OR FAA STATIONS AND ARE NOT UNDER
   NWS QUALITY CONTROL.

LAZ038-040-048-061>063-065>067-069-242200-
SOUTHEAST LOUISIANA

CITY           SKY/WX    TMP DP  RH WIND       PRES   REMARKS
N.O. AUDUBON   NOT AVBL
N.O. INTL ARPT MOSUNNY   67  51  56 S10       29.91S
N.O. LAKEFRONT SUNNY     69  49  48 S7        29.91F
N.O. DOWNTOWN*   N/A     70  50  49 S8        29.92S
RESERVE*         N/A     73  46  37 S10       29.90F
SLIDELL        SUNNY     67  43  41 SE7       29.91F
BATON ROUGE    SUNNY     73  41  31 S9        29.88F
BOOTHVILLE     SUNNY     65  45  48 S7        29.93R
BELLE CHASSE   MOSUNNY   67  53  61 SE8       29.91S
BOGALUSA*        N/A     72  37  28 S8        29.91F
GALLIANO*      CLEAR     69  51  53 SE5       29.92S
NEW ROADS*       N/A     73  38  28 S13G18    29.87F
GONZALES*        N/A     73  40  31 S8        29.89S
HAMMOND*       SUNNY     70  43  37 S7        29.91S
HOUMA*         SUNNY     70  46  43 S9        29.91S
PORT FOURCHON* CLEAR     66  55  68 SE10      29.92R

$$

MSZ070-080>082-242200-
SOUTHERN MISSISSIPPI

CITY           SKY/WX    TMP DP  RH WIND       PRES   REMARKS
MCCOMB         SUNNY     70  34  26 S10       29.88S
GULFPORT       SUNNY     63  47  55 S7        29.92R
BILOXI         SUNNY     60  47  61 S8        29.92R
PASCAGOULA     SUNNY     63  45  51 SW8       29.92R
STENNIS ARPT*  SUNNY     64  39  39 S7        29.92S

$$

COASTAL OBSERVATIONS
LAKE AND NEARSHORE STATIONS

STATION/POSITION TIME  TEMP    WIND        PRES    WAVE
                       AIR SEA DIR/SP/G            HT/PER
                 (UTC) (F)     (DEG/KT/KT) (MB)    (FT/S)
PASCAGOULA       2042   60     200/  6/  9 1012.9
WAVELAND YACHT   2042   58 61  160/  8/  9 1013.3
GRAND ISLE       2042   65 67  170/  5/  9 1013.2
SOUTHWEST PASS   2042          180/  5/  5   N/A
NEW CANAL        2042   68 62  190/  6/  9 1011.9
SHELL BEACH      2042   63 65  170/  5/  9 1013.4

OFFSHORE STATIONS

STATION/POSITION TIME  TEMP    WIND        PRES    WAVE
                       AIR SEA DIR/SP/G            HT/PER
                 (UTC) (F)     (DEG/KT/KT) (MB)    (FT/S)

$$





USA.gov is the U.S. government's official web portal to all federal, state and local government web resources and services.